Location: Ash Swamp
(41.5170°N, 74.6157°W)
Time: 00:28:46
(UTC+00:00)

Cosmos 1833 Rocket - Visible Passes

Search period start: 24 October 2020 00:00
Search period end: 03 November 2020 00:00
Orbit: 831 x 841 km, 71.0° (Epoch: 23 October)

Date Brightness Start Highest point End Pass type
(mag) Time Alt. Az. Time Alt. Az. Time Alt. Az.
24 Oct 2.8 09:40:35 10° SSW 09:46:13 77° ESE 09:51:52 10° NNE visible
25 Oct 2.9 09:23:53 10° SSW 09:29:29 71° ESE 09:35:07 10° NNE visible
26 Oct 3.0 09:08:56 21° S 09:12:46 65° ESE 09:18:22 10° NNE visible
26 Oct 3.9 10:53:00 10° W 10:57:11 21° NW 11:01:23 10° N visible
27 Oct 3.1 08:54:13 40° SSE 08:56:03 59° ESE 09:01:36 10° NNE visible
27 Oct 3.9 10:36:02 10° WSW 10:40:24 22° NW 10:44:46 10° N visible
28 Oct 3.2 08:39:09 54° ESE 08:39:19 54° ESE 08:44:50 10° NNE visible
28 Oct 3.8 10:20:56 17° W 10:23:35 24° NW 10:28:07 10° N visible
29 Oct 3.7 08:23:50 42° ENE 08:23:50 42° ENE 08:28:03 10° NE visible
29 Oct 3.7 10:05:35 24° WNW 10:06:48 26° NW 10:11:28 10° N visible
30 Oct 4.4 08:08:19 29° NE 08:08:19 29° NE 08:11:17 10° NE visible
30 Oct 3.6 09:50:04 27° NW 09:50:04 27° NW 09:54:49 10° N visible
31 Oct 4.9 07:52:40 20° NE 07:52:40 20° NE 07:54:29 10° NE visible
31 Oct 3.8 09:34:24 27° NW 09:34:24 27° NW 09:38:10 10° N visible
01 Nov 5.3 07:36:54 14° NE 07:36:54 14° NE 07:37:41 10° NE visible
01 Nov 4.1 09:18:37 24° NNW 09:18:37 24° NNW 09:21:29 10° N visible
02 Nov 4.4 09:02:45 20° N 09:02:45 20° N 09:04:49 10° N visible
